Weather History for Billings, MT

Change the Weather History Date:

Wednesday, July 3, 2013

  Actual Average Record
Temperature  
Mean Temperature 82 °F 70 °F  
Max Temperature 99 °F 84 °F 103 °F (2012)
Min Temperature 64 °F 57 °F 47 °F (1972)
Degree Days  
Heating Degree Days 0 1  
Month to date heating degree days 0 3  
Since 1 June heating degree days 73 99  
Since 1 July heating degree days 0 3  
Cooling Degree Days 17 6  
Month to date cooling degree days 42 18  
Year to date cooling degree days 165 120  
Since 1 June cooling degree days 138 103  
Growing Degree Days 32 (Base 50)    
Moisture  
Dew Point 51 °F    
Average Humidity 41    
Maximum Humidity 67    
Minimum Humidity 14    
Precipitation  
Precipitation 0.00 in 0.05 in 2.06 in (1993)
Month to date precipitation 0.00 0.16  
Year to date precipitation 7.32 8.14  
Snow  
Snow 0.00 in 0.00 in 0.00 in (2002)
Month to date snowfall 0.0 0.0  
Since 1 June snowfall 0.0 0.0  
Since 1 July snowfall 0.0 0.0  
Snow Depth 0.00 in    
Sea Level Pressure  
Sea Level Pressure 29.80 in    
Wind  
Wind Speed 11 mph (NW)    
Max Wind Speed 25 mph    
Max Gust Speed 32 mph    
Visibility 10 miles    
Events      
T = Trace of Precipitation, MM = Missing Value Source: NWS Daily Summary

Daily Weather History Graph

Daily Weather History Graph

Search for Another Location

Airport:

Trip Planner

Search our weather history database for the weather conditions in past years. The results will help you decide how hot, cold, wet, or windy it might be!

Date:

Astronomy

Jul. 03, 2013 Rise Set
Actual Time 5:29 AM MDT 9:07 PM MDT
Civil Twilight 4:51 AM MDT 9:45 PM MDT
Nautical Twilight 4:00 AM MDT 10:35 PM MDT
Astronomical Twilight 2:52 AM MDT 11:43 PM MDT
Moon 2:16 AM MDT (7/3) 5:15 PM MDT (7/3)
Length of Visible Light 16h 53m
Length of Day
15h 37m
Waning Crescent, 18% of the Moon is Illuminated
Jul 3
Waning Crescent
Jul 8
New
Jul 15
First Quarter
Jul 22
Full
Jul 29
Last Quarter

Hourly Weather History & Observations

Time (MDT) Temp. Heat Index Dew Point Humidity Pressure Visibility Wind Dir Wind Speed Gust Speed Precip Events Conditions
12:53 AM 77.0 °F - 48.9 °F 37% 29.85 in 10.0 mi Calm Calm - N/A   Clear
1:53 AM 70.0 °F - 48.9 °F 47% 29.84 in 10.0 mi Calm Calm - N/A   Clear
2:53 AM 71.1 °F - 51.1 °F 49% 29.83 in 10.0 mi SW 9.2 mph - N/A   Clear
3:53 AM 69.1 °F - 52.0 °F 54% 29.83 in 10.0 mi SSW 4.6 mph - N/A   Partly Cloudy
4:53 AM 69.1 °F - 53.1 °F 57% 29.81 in 10.0 mi WSW 6.9 mph - N/A   Scattered Clouds
5:53 AM 64.0 °F - 53.1 °F 67% 29.83 in 10.0 mi SW 11.5 mph - N/A   Partly Cloudy
6:53 AM 66.0 °F - 54.0 °F 65% 29.84 in 10.0 mi SW 12.7 mph - N/A   Partly Cloudy
7:53 AM 69.1 °F - 53.1 °F 57% 29.85 in 10.0 mi SW 13.8 mph - N/A   Scattered Clouds
8:53 AM 73.9 °F - 54.0 °F 50% 29.84 in 10.0 mi SW 15.0 mph - N/A   Partly Cloudy
9:53 AM 84.9 °F 83.9 °F 57.0 °F 38% 29.82 in 10.0 mi NNW 21.9 mph 28.8 mph N/A   Partly Cloudy
10:07 AM 91.9 °F 89.5 °F 54.0 °F 27% 29.95 in 10.0 mi NW 19.6 mph 29.9 mph N/A   Partly Cloudy
10:53 AM 91.0 °F 88.5 °F 53.1 °F 27% 29.81 in 10.0 mi NW 19.6 mph 24.2 mph N/A   Partly Cloudy
11:53 AM 95.0 °F - 51.1 °F 22% 29.81 in 10.0 mi NNW 15.0 mph 24.2 mph N/A   Scattered Clouds
12:53 PM 95.0 °F - 50.0 °F 22% 29.80 in 10.0 mi North 12.7 mph 26.5 mph N/A   Scattered Clouds
1:53 PM 97.0 °F - 48.0 °F 19% 29.80 in 10.0 mi NNW 13.8 mph 20.7 mph N/A   Partly Cloudy
2:53 PM 97.0 °F - 46.9 °F 18% 29.79 in 10.0 mi WNW 13.8 mph 20.7 mph N/A   Scattered Clouds
3:53 PM 97.0 °F - 48.9 °F 19% 29.78 in 10.0 mi North 8.1 mph 18.4 mph N/A   Scattered Clouds
4:53 PM 98.1 °F - 41.0 °F 14% 29.76 in 10.0 mi NW 18.4 mph 23.0 mph N/A   Partly Cloudy
5:53 PM 97.0 °F - 43.0 °F 16% 29.76 in 10.0 mi NNW 16.1 mph - N/A   Partly Cloudy
6:53 PM 95.0 °F - 45.0 °F 18% 29.75 in 10.0 mi North 10.4 mph - N/A   Partly Cloudy
7:53 PM 91.9 °F - 50.0 °F 24% 29.75 in 10.0 mi ENE 10.4 mph - N/A   Partly Cloudy
8:53 PM 87.1 °F - 52.0 °F 30% 29.75 in 10.0 mi East 8.1 mph - N/A   Partly Cloudy
9:53 PM 84.0 °F - 52.0 °F 33% 29.75 in 10.0 mi East 4.6 mph - N/A   Partly Cloudy
10:53 PM 80.1 °F - 51.1 °F 36% 29.76 in 10.0 mi NNE 6.9 mph - N/A   Partly Cloudy
11:53 PM 77.0 °F - 53.1 °F 43% 29.78 in 10.0 mi NNE 5.8 mph - N/A   Clear